Date/Time (UTC),PHv2,PWv2,PTv2,PSv3,PHv3,PWv3,PTv3,MESH,VIL,CompRef,Ref -20C,Flash Rate,Max Flash Density,LJA sigma-level,Max 0-2km AzShear,LLAZ 98th%,MLAZ 98th%,MUCAPE,MLCAPE,CAPE -10C to -30C,MLCIN,SRH 0-1km AGL,EBShear,MeanWind 0-1km AGL,Norm. Sat. Growth Rate,ICP,PWAT,WBZ,AvgBeamHgt,STP(eff),DCAPE,ESRH
2022/03/05 20:32,4,1,3,4,1,2,1,0.04,5,50.5,41,2,0.06,0,2,2,2,2293,1769,671,3,155,62,44,0,0,1.0,7.8,7.02,0.9,451,177
2022/03/05 20:34,4,1,3,5,1,3,1,0.08,7,52.5,42,3,0.06,0,2,2,2,2266,1769,680,3,158,62,43,0,0,1.0,7.7,7.03,0.9,451,177
2022/03/05 20:36,4,1,3,5,1,3,1,0.08,7,52.5,42,3,0.08,0,2,2,2,2266,1769,680,3,158,62,43,0,0,1.0,7.7,7.03,0.9,451,177
2022/03/05 20:38,5,2,3,5,2,2,0,0.17,11,52.5,44,3,0.11,0,1,2,1,2246,1781,689,3,160,61,43,0,0,1.0,7.7,6.97,0.9,451,177
2022/03/05 20:40,11,4,3,4,1,1,0,0.17,12,56.5,44,4,0.18,0,1,2,1,2233,1781,689,3,160,61,43,0,0,1.0,7.7,7.0,0.6,551,163
2022/03/05 20:42,12,7,3,18,9,7,1,0.19,16,61.5,45,8,0.27,0,2,3,2,2218,1781,691,3,162,61,43,2.1,0,1.0,7.7,7.05,0.6,529,176
2022/03/05 20:44,12,21,4,16,9,7,1,0.19,16,61.5,44,8,0.27,0,3,4,2,2201,1785,695,2,163,61,43,2.1,0,1.0,7.7,7.07,0.6,551,163
2022/03/05 20:46,12,21,4,26,15,9,2,0.19,16,61.5,44,8,0.27,0,3,4,3,2201,1785,695,2,163,61,43,2.1,0,1.0,7.7,7.07,0.6,551,163
2022/03/05 20:48,18,34,4,24,15,8,2,0.18,16,59.5,44,23,0.41,6.8,3,4,2,2206,1788,692,2,163,61,43,2.1,0,1.0,7.7,7.16,0.6,529,176
2022/03/05 20:50,22,36,5,21,11,9,2,0.2,16,59.5,46,23,0.41,-1,4,5,3,2208,1805,684,1,163,61,43,2.1,0,1.0,7.7,7.18,0.6,529,176
2022/03/05 20:52,22,46,5,26,13,10,2,0.22,17,61.0,46,23,0.45,0.9,4,5,2,2210,1813,683,1,163,61,43,2.1,0,1.0,7.7,7.23,0.6,529,176
2022/03/05 20:54,43,68,5,43,19,14,3,0.33,20,63.5,46,37,0.88,2.0,4,5,3,2214,1825,682,1,162,61,43,2.1,0,1.0,7.7,7.25,0.6,529,176
2022/03/05 20:56,37,73,4,52,27,18,5,0.43,22,63.5,50,37,0.88,0,4,5,3,1883,1536,580,8,111,60,44,2.1,0,0.9,5.9,7.34,0.6,529,176
2022/03/05 20:58,37,71,3,61,30,23,6,0.43,22,64.0,46,37,0.88,-1,5,4,4,1870,1536,575,7,111,60,44,2.1,0,0.9,5.9,7.32,0.6,529,176
2022/03/05 21:00,37,67,3,62,43,22,9,0.43,22,64.0,48,37,0.88,0,5,4,4,1857,1548,575,6,118,60,44,2.1,0,0.9,6.0,7.52,1.1,765,150
2022/03/05 21:04,24,60,6,64,43,25,10,0.38,20,63.0,49,25,0.88,0.3,5,7,4,1857,1551,575,6,118,60,44,1.9,1,1.0,6.0,7.58,1.1,765,150
2022/03/05 21:06,26,66,8,67,42,24,9,0.38,21,63.0,50,26,0.88,0.3,5,7,5,1826,1553,575,5,125,60,44,1.9,0,1.0,6.2,7.71,0.9,783,148
2022/03/05 21:08,35,73,8,66,45,23,12,0.43,22,61.0,50,32,0.88,1.3,5,7,4,1826,1553,573,5,125,60,44,1.9,10,1.0,6.2,7.77,0.9,765,150
2022/03/05 21:10,35,70,6,54,32,18,8,0.44,22,58.0,50,33,0.88,0.0,5,5,4,1818,1548,571,5,126,60,44,1.9,5,1.0,6.2,7.83,0.9,783,148
2022/03/05 21:12,51,74,5,65,43,25,14,0.51,24,58.0,52,42,0.88,2.4,5,5,4,1744,1531,564,4,135,60,43,1.9,48,1.0,6.4,7.89,0.9,783,148
2022/03/05 21:14,51,69,4,66,44,25,13,0.51,24,58.0,52,43,0.9,0.2,5,4,4,1744,1524,559,4,135,60,43,1.9,67,1.0,6.4,7.89,0.9,783,148
2022/03/05 21:16,56,75,4,61,41,20,11,0.55,25,58.0,52,43,1.06,-4,5,4,4,1792,1562,571,5,140,61,43,1.9,66,1.0,6.5,8.11,0.9,726,159
2022/03/05 21:18,65,78,5,70,54,25,16,0.6,25,60.0,53,57,1.37,3.5,5,4,4,1710,1524,559,3,141,61,43,1.9,74,1.0,6.6,7.99,0.9,669,169
2022/03/05 21:20,73,83,5,70,53,27,17,0.74,27,60.0,55,57,1.37,0,5,4,4,1777,1568,572,4,155,61,43,1.9,82,1.0,6.7,8.35,0.9,669,169
2022/03/05 21:22,76,85,9,76,55,34,22,0.77,28,60.0,55,57,1.37,0,6,5,5,1744,1557,567,4,155,61,43,1.9,78,1.0,6.7,8.16,0.9,669,169
2022/03/05 21:24,76,91,10,78,65,30,22,0.79,32,59.5,56,57,1.37,1.0,6,5,5,1720,1557,566,3,164,61,43,1.9,78,1.0,6.7,7.94,0.9,669,169
2022/03/05 21:26,83,91,13,80,70,29,27,0.97,36,60.0,58,46,1.37,0,6,5,6,1720,1557,566,3,163,61,43,1.9,81,1.0,6.7,7.98,0.9,669,169
2022/03/05 21:28,83,94,32,83,67,37,40,0.97,36,60.0,56,46,1.37,0.0,11,6,6,1710,1549,566,3,163,61,43,1.9,82,1.0,6.7,8.02,0.9,669,169
2022/03/05 21:30,81,94,33,83,65,41,42,0.97,36,60.0,53,46,1.37,0,8,6,6,1685,1549,568,3,171,59,42,1.9,87,1.0,6.7,7.42,0.9,669,169
2022/03/05 21:32,73,92,44,82,63,37,45,0.85,34,59.0,54,35,1.37,0.6,9,7,7,1680,1549,568,2,171,59,42,1.9,79,1.0,6.8,7.36,0.9,669,169
2022/03/05 21:34,64,90,86,89,63,52,58,0.77,31,59.0,54,35,1.37,0,14,12,9,1669,1549,568,2,171,57,42,1.9,86,1.0,6.8,7.2,0.9,669,169
2022/03/05 21:36,64,90,89,88,56,48,56,0.77,31,59.0,54,35,1.37,0.4,14,12,10,1645,1546,568,2,174,56,42,1.9,86,1.0,7.0,6.88,0.7,638,169
2022/03/05 21:38,60,90,93,88,63,52,61,0.74,30,59.0,56,35,1.37,0,19,14,10,1647,1549,570,2,174,57,42,1.9,76,1.0,7.0,6.85,0.8,654,169
2022/03/05 21:40,68,95,93,91,66,54,61,0.8,30,63.0,56,35,1.37,0,19,14,11,1647,1549,572,2,176,56,42,1.9,73,1.0,7.0,6.73,0.7,638,169
2022/03/05 21:42,65,90,93,91,64,51,61,0.8,31,63.0,55,35,1.37,0.9,18,14,12,1630,1559,580,1,180,56,42,1.9,81,1.0,7.2,6.37,0.7,589,193
2022/03/05 21:44,80,97,93,92,76,52,62,1.07,37,64.0,60,36,1.37,1.1,18,14,12,1629,1566,583,1,183,55,42,1.9,80,1.0,7.4,6.05,0.6,576,193
2022/03/05 21:46,88,95,93,92,79,52,62,1.24,40,64.0,60,45,1.37,3.0,18,15,12,1630,1562,584,1,184,56,42,1.9,78,1.0,7.4,6.19,0.6,576,193
2022/03/05 21:48,88,95,93,93,79,57,63,1.24,40,64.0,58,45,1.37,-3,18,15,13,1633,1570,584,1,185,56,42,1.9,79,1.0,7.4,5.9,0.6,576,193
2022/03/05 21:50,93,95,93,93,82,59,63,1.57,41,63.5,63,45,1.11,0.1,24,16,13,1636,1589,587,1,190,56,42,1.9,84,1.0,7.5,5.64,0.6,576,193
2022/03/05 21:52,94,95,93,93,85,60,58,1.77,44,68.0,64,45,0.95,0.6,26,19,11,1636,1601,586,1,190,56,42,1.9,85,1.0,7.5,5.47,0.6,576,193
2022/03/05 21:54,93,95,93,93,84,60,58,1.77,44,68.0,63,35,0.95,0.1,26,20,10,1638,1614,585,1,193,56,42,1.9,83,1.0,7.5,5.25,0.6,576,193
2022/03/05 21:56,93,95,93,93,86,61,58,1.77,45,68.0,63,35,0.78,0,26,20,14,1640,1624,581,1,199,56,42,1.9,87,1.0,7.5,4.98,0.6,576,193
2022/03/05 21:58,96,95,93,94,87,50,46,1.83,46,67.0,64,36,0.78,0.0,26,20,15,1600,1568,605,5,184,59,44,1.9,76,0.9,5.8,4.9,0.9,808,136
2022/03/05 22:00,97,95,93,95,87,51,50,2.13,47,66.5,64,37,0.78,0.7,26,17,14,1587,1557,605,3,184,59,44,1.9,73,0.9,5.8,4.78,0.9,808,136
2022/03/05 22:02,97,95,93,95,88,50,50,2.13,50,66.5,65,52,0.78,7.8,26,17,10,1578,1552,606,2,185,59,45,1.9,77,1.0,5.9,4.54,0.9,808,136
2022/03/05 22:04,97,95,93,95,87,52,52,2.61,50,66.5,66,52,0.78,-2,23,15,10,1568,1552,606,1,185,59,45,1.9,74,1.0,6.1,4.34,0.8,817,138
2022/03/05 22:06,97,95,93,96,88,54,52,2.61,50,68.0,68,52,0.78,0,23,15,10,1568,1552,606,1,188,59,45,0,77,1.0,6.1,4.26,0.8,829,138
2022/03/05 22:08,97,95,93,95,87,41,49,2.62,52,68.5,68,52,0.78,0,23,15,9,1563,1553,603,1,185,58,45,0,71,1.0,6.3,4.12,0.8,817,138
2022/03/05 22:10,95,95,91,95,87,46,50,2.62,52,68.5,66,37,0.65,0,24,16,10,1563,1558,592,1,185,58,45,0,81,1.0,6.5,3.82,0.8,829,138
2022/03/05 22:12,95,95,91,96,87,48,49,2.62,57,69.5,66,36,0.65,0,24,16,10,1563,1558,588,1,184,58,45,0,78,1.0,6.5,3.74,0.8,829,138
2022/03/05 22:14,96,95,91,96,88,49,48,2.24,57,69.5,64,51,0.65,3.7,24,16,8,1571,1564,581,1,179,58,45,0,76,1.0,6.5,3.68,0.8,817,138
2022/03/05 22:16,96,95,91,94,87,41,43,2.24,57,69.5,62,51,0.65,-1,26,20,10,1582,1583,574,1,185,57,45,0,69,1.0,6.6,3.27,0.8,817,148
2022/03/05 22:18,96,95,91,93,86,46,45,2.19,57,66.0,63,51,0.65,1.0,26,20,10,1582,1583,570,1,185,57,45,0,84,1.0,6.6,3.21,0.8,817,148
2022/03/05 22:19,96,95,91,93,86,46,45,2.19,57,66.0,60,51,0.65,-2,26,20,10,1582,1587,567,1,188,57,45,0,83,1.0,6.6,3.1,0.8,817,148
2022/03/05 22:22,95,95,91,93,85,46,46,1.89,51,65.5,60,48,0.65,0.5,33,20,9,1582,1595,563,1,188,57,44,0,83,1.0,6.6,2.94,0.8,817,148
2022/03/05 22:24,93,95,91,92,83,44,45,1.5,50,65.5,60,48,0.65,0,33,20,9,1582,1595,556,1,189,57,44,0,81,1.0,6.6,2.84,0.8,817,148
2022/03/05 22:26,86,95,88,90,77,44,47,1.19,47,64.5,58,47,0.65,1.1,33,20,7,1562,1572,563,0,179,57,44,0,85,1.0,6.6,2.92,0.8,817,148
2022/03/05 22:28,86,95,88,91,78,40,47,1.19,47,64.5,56,48,0.65,0.0,32,14,8,1561,1571,563,0,186,56,44,0,57,1.0,6.6,2.77,0.8,817,148
2022/03/05 22:30,77,97,79,93,75,44,53,0.99,41,66.5,58,48,0.65,0,20,10,8,1548,1564,563,0,186,56,44,0,61,1.0,6.7,2.58,0.8,643,161
2022/03/05 22:32,79,97,81,92,75,44,54,0.99,39,66.5,58,54,0.65,0.6,18,11,8,1548,1561,563,0,189,56,44,0,61,1.0,6.7,2.51,0.7,643,162
2022/03/05 22:34,83,97,85,93,74,44,55,0.99,39,66.5,58,64,0.65,0.9,24,12,8,1541,1546,568,0,195,55,44,0,64,1.0,6.7,2.25,0.7,643,162
2022/03/05 22:36,83,97,85,92,74,43,53,0.96,39,66.0,58,64,0.65,-4,24,16,8,1533,1533,567,0,206,54,43,0,62,1.0,6.8,1.98,0.7,643,162
2022/03/05 22:38,83,97,85,92,71,43,53,0.96,37,66.0,55,64,0.65,0,24,16,8,1522,1525,576,0,209,54,43,0,61,1.0,6.8,1.89,0.7,643,162
2022/03/05 22:40,83,97,93,90,75,40,53,0.96,35,65.5,56,64,0.65,0.1,27,18,11,1504,1486,581,0,216,53,43,0,63,1.0,6.9,1.68,0.7,643,162
2022/03/05 22:42,53,92,93,89,72,39,53,0.76,33,65.5,56,32,0.65,0,27,18,12,1495,1466,581,0,219,53,43,0,62,1.0,7.0,1.54,0.7,643,162
2022/03/05 22:44,47,85,93,89,68,39,52,0.76,33,65.5,56,25,0.65,0,27,18,12,1492,1455,581,0,219,53,43,0,50,1.0,7.1,1.47,0.7,643,162
2022/03/05 22:46,38,83,93,88,67,39,55,0.67,31,63.0,58,25,0.65,0,27,18,12,1489,1437,578,0,225,53,43,0,54,1.0,7.2,1.33,0.6,570,172
2022/03/05 22:48,38,87,93,88,65,38,52,0.67,31,63.5,54,24,0.65,1.7,31,19,15,1488,1419,572,0,229,53,43,0,58,1.0,7.2,1.21,0.6,570,172
2022/03/05 22:50,35,81,93,88,66,42,53,0.66,29,63.5,55,24,0.65,0.2,31,19,14,1487,1418,567,0,231,53,43,0,65,1.0,7.2,1.16,0.6,570,172
2022/03/05 22:52,39,83,93,89,66,43,54,0.74,29,63.5,55,24,0.64,-2,31,20,14,1485,1411,563,0,233,53,43,0,67,1.0,7.2,1.11,0.6,570,172
2022/03/05 22:54,42,87,93,89,69,42,54,0.74,28,63.5,58,24,0.64,1.8,31,20,15,1481,1403,553,0,234,53,42,0,64,1.0,7.3,0.95,0.6,570,172
2022/03/05 22:56,43,91,93,89,69,42,54,0.81,30,63.0,58,24,0.64,-1,25,20,16,1478,1396,545,0,236,53,42,0,64,1.0,7.3,0.86,0.6,570,172
2022/03/05 22:58,54,93,93,90,79,52,58,1.0,35,64.0,59,24,0.64,0,25,20,16,1478,1395,544,0,238,53,42,0,71,1.0,7.3,0.84,1.3,610,192
2022/03/05 23:00,50,95,93,91,79,55,57,1.0,35,66.5,58,24,0.64,0.7,25,20,15,1421,1366,470,1,250,56,46,0,69,1.0,6.0,0.75,1.3,610,192
2022/03/05 23:02,43,90,93,92,79,53,57,1.0,35,66.5,56,19,0.64,0,24,19,13,1415,1364,468,1,250,56,46,0,71,1.0,6.0,0.72,1.3,610,192
2022/03/05 23:04,63,97,93,94,83,60,63,1.2,38,66.5,60,24,0.64,1.0,21,15,13,1399,1356,463,1,252,56,46,0,77,1.0,6.1,0.64,1.3,610,192
2022/03/05 23:06,69,97,93,95,83,59,62,1.26,39,66.5,62,24,0.6,0,26,16,13,1392,1356,462,1,252,56,46,0,79,1.0,6.1,0.63,1.2,610,192
2022/03/05 23:08,74,97,93,92,85,50,57,1.31,41,66.5,62,30,0.6,2.4,25,20,11,1372,1342,460,1,260,56,46,0,80,1.0,6.2,0.55,1.2,696,208
2022/03/05 23:10,74,97,93,92,84,51,57,1.31,42,66.5,58,30,0.6,0,25,20,15,1350,1334,455,1,261,56,46,0,79,1.0,6.4,0.51,1.2,696,208
2022/03/05 23:12,80,95,93,93,86,51,57,1.51,42,66.0,62,30,0.6,0,25,20,15,1350,1334,455,1,262,56,46,0,80,1.0,6.4,0.52,1.2,696,208
2022/03/05 23:14,82,95,93,93,86,53,54,1.51,45,67.5,62,31,0.6,1.1,30,22,13,1331,1325,455,1,262,55,46,0,85,1.0,6.7,0.51,1.2,696,208
2022/03/05 23:16,82,95,93,93,86,53,54,1.51,45,67.5,62,31,0.6,-1,30,22,12,1331,1324,455,1,265,55,46,0,82,1.0,6.7,0.53,1.2,696,208
2022/03/05 23:18,81,95,93,93,85,51,54,1.38,45,67.5,58,40,0.6,3.2,30,22,12,1321,1319,451,1,262,53,46,0,82,1.0,6.9,0.55,1.2,696,208
2022/03/05 23:20,70,97,93,92,82,51,54,1.14,40,67.5,58,40,0.6,-2,30,22,12,1320,1319,451,1,262,53,45,0,87,1.0,6.9,0.56,1.2,696,208
2022/03/05 23:22,61,97,93,91,81,51,53,1.08,37,67.5,56,40,0.6,0,30,22,12,1312,1311,445,1,262,52,45,0,80,1.0,6.9,0.63,1.2,696,208
2022/03/05 23:24,61,97,92,91,81,49,53,1.07,37,67.5,60,40,0.6,1.2,30,22,8,1304,1305,444,0,258,51,45,0,85,1.0,6.9,0.69,1.1,712,215
2022/03/05 23:26,52,95,92,91,80,49,57,1.07,34,66.0,57,31,0.6,0,31,20,8,1304,1305,444,0,258,51,45,0,89,1.0,6.9,0.72,1.1,712,215
2022/03/05 23:28,57,97,86,91,81,52,56,1.17,39,65.0,60,31,0.6,0.2,31,20,9,1301,1300,439,0,257,50,44,0,86,1.0,6.9,0.84,1.1,712,215
2022/03/05 23:30,57,95,89,91,81,50,55,1.17,39,65.0,60,31,0.6,0,31,19,10,1294,1297,438,0,257,50,44,0,84,1.0,6.9,0.9,1.1,712,215
2022/03/05 23:32,53,95,89,91,80,50,59,1.17,39,64.0,58,30,0.6,0.8,31,18,10,1294,1297,437,0,255,50,44,0,89,1.0,6.9,0.96,1.1,712,215
2022/03/05 23:34,50,92,89,90,76,52,59,1.15,32,64.0,58,30,0.6,-1,31,18,10,1297,1298,435,0,254,50,44,0,82,1.0,6.9,1.02,1.1,712,215
2022/03/05 23:36,40,93,90,91,78,49,60,0.95,37,64.0,57,30,0.6,1.2,28,17,11,1301,1292,434,1,255,50,43,0,84,1.0,7.0,1.17,1.1,712,215
2022/03/05 23:38,37,92,90,91,77,50,60,0.89,37,64.0,58,33,0.6,0.9,28,17,11,1302,1292,433,0,254,50,43,0,86,1.0,7.0,1.24,1.1,712,215
2022/03/05 23:40,37,93,90,90,76,49,60,0.89,37,64.0,58,33,0.6,-2,23,17,11,1305,1292,432,0,255,50,43,0,86,1.0,7.0,1.27,1.1,712,215
2022/03/05 23:42,42,90,91,91,72,55,58,0.96,30,63.5,60,33,0.6,0.4,23,17,12,1317,1297,430,0,257,49,43,0,86,1.0,7.0,1.46,1.0,712,215
2022/03/05 23:44,42,90,91,91,69,52,59,0.96,33,63.5,55,33,0.6,0.7,23,17,11,1332,1306,426,0,254,48,42,0,88,1.0,6.9,1.57,1.0,712,215
2022/03/05 23:46,35,89,91,92,76,53,60,0.96,33,64.5,56,26,0.6,0,26,16,11,1338,1308,426,0,258,48,42,0,90,1.0,6.9,1.65,1.0,642,215
2022/03/05 23:48,26,87,89,92,72,54,58,0.84,33,64.5,55,26,0.6,0,19,16,9,1348,1310,426,0,260,47,42,0,86,1.0,6.9,1.8,1.0,642,215
2022/03/05 23:50,26,87,89,89,71,46,57,0.83,34,64.5,56,26,0.6,0.4,21,18,8,1365,1313,424,0,265,47,42,0,86,1.0,6.9,1.98,0.7,642,204
2022/03/05 23:52,15,78,83,88,65,41,57,0.74,34,64.0,56,19,0.6,-1,21,18,8,1368,1313,424,0,265,47,42,0,64,1.0,6.9,2.01,0.7,642,204
2022/03/05 23:54,20,81,77,89,64,50,56,0.74,34,64.5,54,26,0.6,2.3,21,18,6,1375,1313,420,0,265,47,42,0,80,1.0,6.9,2.14,0.7,642,204
2022/03/05 23:56,20,81,78,89,66,53,56,0.74,32,64.5,56,26,0.54,-1,21,18,8,1373,1313,416,0,268,47,41,0,88,1.0,6.9,2.44,0.7,642,204
2022/03/05 23:58,19,78,78,90,59,51,55,0.74,29,64.5,54,26,0.54,0.0,26,16,8,1338,1242,416,6,320,42,46,0,72,1.1,6.0,2.5,0.7,642,204
2022/03/06 00:00,19,84,78,90,65,58,56,0.74,29,64.0,56,26,0.54,0,20,15,8,1338,1249,416,8,325,42,46,0,71,1.1,6.0,2.56,1.3,521,229
2022/03/06 00:04,20,78,78,86,57,43,54,0.83,32,63.0,56,23,0.54,0.5,15,12,6,1339,1257,409,13,330,42,46,0,77,1.0,6.0,2.92,1.3,578,229
2022/03/06 00:06,20,78,78,86,58,43,55,0.83,32,63.0,56,23,0.54,0.1,17,12,6,1345,1259,409,15,330,42,46,0,81,1.0,6.0,3.0,1.3,590,229
2022/03/06 00:08,28,78,65,87,58,44,54,0.97,34,63.0,56,24,0.54,0.1,17,12,6,1343,1262,407,18,330,42,46,0,77,1.0,6.1,3.25,1.3,590,229
2022/03/06 00:10,46,93,85,90,67,47,56,0.97,37,63.0,56,37,0.72,7.8,17,14,10,1338,1262,407,19,326,42,46,0,78,1.0,6.3,3.51,1.3,590,229
2022/03/06 00:12,46,93,85,90,66,48,55,0.97,37,63.0,55,37,0.72,-4,17,14,9,1338,1262,407,20,327,42,46,0,77,1.0,6.3,3.48,1.3,590,229
2022/03/06 00:14,46,93,86,89,66,39,54,0.97,37,62.5,56,37,0.72,0.2,17,14,10,1337,1263,410,22,324,42,46,0,67,1.0,6.6,3.67,1.3,590,229
2022/03/06 00:16,47,93,86,86,59,34,53,0.97,34,62.5,54,37,0.72,0.4,17,13,7,1345,1262,412,20,315,42,45,0,68,1.1,6.8,3.98,1.3,590,229
2022/03/06 00:18,21,84,86,86,53,37,51,0.72,32,62.5,52,29,0.72,0.6,26,12,7,1345,1262,413,21,311,42,45,0,66,1.1,6.8,4.04,1.3,590,229
2022/03/06 00:20,16,78,74,85,49,38,50,0.64,32,62.5,50,29,0.72,-1,26,12,7,1348,1261,413,21,310,42,45,0,67,1.1,6.8,4.12,1.3,590,229
2022/03/06 00:22,14,80,74,84,45,40,50,0.56,28,62.5,49,29,0.72,0.1,28,13,5,1355,1261,413,21,309,41,45,0,68,1.1,6.9,4.28,1.3,590,229
2022/03/06 00:24,10,80,74,80,44,38,48,0.5,24,61.0,50,29,0.72,0.0,28,13,5,1355,1259,414,21,301,41,45,0,57,1.1,6.9,4.48,1.3,590,229
2022/03/06 00:26,9,72,66,76,38,36,45,0.5,24,59.5,50,28,0.72,1.6,28,13,5,1359,1257,414,20,298,41,45,0,61,1.1,6.9,4.6,1.2,749,228
2022/03/06 00:28,9,72,64,72,33,36,44,0.5,23,59.0,53,28,0.72,-1,28,11,5,1361,1253,415,18,290,41,45,0,25,1.1,6.9,4.84,1.2,749,228
2022/03/06 00:30,9,68,55,67,25,34,41,0.5,21,59.0,48,28,0.72,0,14,10,5,1361,1250,415,17,287,40,45,0,6,1.1,6.9,4.97,1.2,749,228
2022/03/06 00:32,8,69,58,67,25,34,39,0.44,21,58.5,50,28,0.72,0.6,14,10,5,1358,1250,415,18,287,40,45,0,4,1.1,6.9,5.06,1.2,749,228
2022/03/06 00:34,4,61,54,67,25,37,35,0.44,23,58.0,50,13,0.72,0,14,10,6,1357,1245,416,17,280,39,45,0,9,1.1,6.9,5.33,1.2,749,228
2022/03/06 00:36,7,72,54,68,29,39,36,0.48,23,57.5,51,22,0.72,1.2,14,10,6,1350,1243,416,17,278,39,44,0,28,1.1,6.9,5.47,1.2,749,228
2022/03/06 00:38,9,69,66,71,32,38,42,0.5,23,57.5,51,22,0.72,0,17,13,6,1350,1243,416,14,276,39,44,0,69,1.1,6.9,5.57,1.2,749,228
2022/03/06 00:40,9,69,71,79,43,43,49,0.5,22,60.0,50,22,0.72,0.7,19,14,7,1339,1235,416,14,271,39,44,0,77,1.1,6.9,5.79,1.2,749,228
2022/03/06 00:42,15,72,68,77,30,31,49,0.5,22,61.0,47,33,0.67,2.2,19,14,5,1325,1193,386,9,261,39,41,0,31,1.1,6.9,6.63,1.1,744,231
2022/03/06 00:44,10,72,65,76,31,34,47,0.44,21,61.5,48,33,0.67,0,19,14,5,1320,1183,385,9,260,39,41,0,31,1.1,6.9,6.97,1.0,749,219
2022/03/06 00:46,17,64,24,76,29,33,29,0.44,21,62.5,47,50,0.67,2.4,19,6,5,1318,1189,389,9,261,39,41,0,14,1.1,6.9,6.96,1.0,751,219
2022/03/06 00:48,16,66,21,75,29,32,31,0.44,21,62.5,48,50,0.67,-1,16,6,4,1312,1175,388,9,261,39,40,0,36,1.1,6.9,7.39,1.0,751,219
2022/03/06 00:50,14,72,28,73,25,30,36,0.36,20,62.5,48,50,0.61,0.6,14,8,4,1312,1178,389,9,261,38,40,0,29,1.1,6.9,7.41,1.0,751,219
2022/03/06 00:52,15,80,36,75,26,35,36,0.36,20,62.5,46,50,0.61,0,14,8,6,1298,1198,406,10,263,39,43,0,61,1.1,6.9,6.95,1.0,751,219
2022/03/06 00:54,12,72,30,61,22,21,27,0.37,18,59.5,51,41,0.61,0.1,14,8,5,1285,1191,405,10,268,39,43,0,56,1.1,6.9,7.31,1.0,751,219
2022/03/06 00:56,12,68,19,58,15,18,21,0.37,18,59.0,43,41,0.61,0,11,7,6,1267,1186,405,10,273,38,43,0,56,1.1,6.9,7.53,1.0,751,219
2022/03/06 00:58,3,33,6,34,13,12,7,0.37,17,58.5,46,12,0.61,0,6,5,5,1267,1186,401,9,274,38,42,0,12,1.1,6.9,7.73,1.0,751,219
2022/03/06 01:00,2,33,6,39,17,21,8,0.28,17,58.5,46,12,0.61,0,6,5,5,1261,1186,401,9,278,38,42,0,10,1.1,6.9,7.94,1.3,416,204
2022/03/06 01:02,2,24,5,42,17,19,6,0.28,17,58.5,44,7,0.61,0,6,5,4,1261,1186,401,9,282,38,42,0,14,1.1,6.9,8.13,1.3,416,204
2022/03/06 01:04,2,24,5,43,16,20,6,0.27,17,58.0,44,7,0.61,0,6,5,4,1261,1196,396,9,287,38,42,0,4,1.1,6.9,8.48,1.3,416,204
2022/03/06 01:06,1,24,5,50,18,20,8,0.24,17,58.0,44,10,0.61,0.6,6,5,5,1261,1197,396,9,287,38,42,0,13,1.1,6.9,8.51,1.3,416,204
2022/03/06 01:08,2,33,6,45,17,15,4,0.2,16,58.5,42,13,0.4,0.9,6,5,4,1266,1211,394,9,294,38,42,0,5,1.1,6.9,8.87,1.0,629,177
2022/03/06 01:10,2,33,5,44,18,14,4,0.29,17,58.5,42,13,0.4,0,5,5,5,1266,1213,392,9,298,39,42,0,10,1.1,6.9,9.0,1.0,629,177
2022/03/06 01:12,4,56,6,53,25,23,8,0.29,17,60.5,48,27,0.41,5.1,5,5,3,1272,1221,417,13,285,40,44,0,4,1.1,6.9,7.05,1.8,504,258
2022/03/06 01:14,4,61,7,55,22,18,7,0.29,17,60.5,39,27,0.5,-1,7,6,6,1270,1230,390,8,304,40,42,0,17,1.1,7.0,9.59,1.0,629,177
2022/03/06 01:16,6,62,7,57,32,22,8,0.38,20,60.5,48,27,0.5,0,7,6,5,1287,1226,392,8,303,40,41,0,11,1.1,7.0,9.65,1.0,629,177
2022/03/06 01:18,6,65,8,63,32,23,10,0.38,20,59.0,48,27,0.5,0.1,7,6,5,1293,1230,392,8,304,44,41,0,12,1.1,7.0,9.64,1.0,629,177
2022/03/06 01:20,3,56,12,62,31,25,11,0.38,20,58.5,46,12,0.5,0,7,7,5,1260,1227,396,8,302,44,42,0,3,1.1,7.0,9.4,1.0,629,177
2022/03/06 01:22,4,44,14,49,23,20,11,0.35,17,58.5,48,11,0.5,0,7,7,5,1318,1233,394,6,304,49,41,0,7,1.1,7.0,9.52,1.0,629,177
2022/03/06 01:24,4,44,14,49,26,21,11,0.35,17,58.5,47,11,0.5,0,7,7,4,1327,1234,397,6,305,49,41,0,4,1.1,7.0,9.34,1.0,629,177
2022/03/06 01:26,5,44,16,59,25,23,10,0.35,17,58.5,42,13,0.5,3.4,8,7,4,1282,1230,399,6,303,51,42,0,1,1.1,7.0,9.03,1.0,629,177
2022/03/06 01:28,4,40,18,55,20,19,11,0.26,12,58.5,42,15,0.5,0.5,8,7,4,1281,1229,400,5,303,52,42,0,1,1.1,7.0,8.87,1.0,631,177
2022/03/06 01:30,2,38,22,44,9,20,10,0.17,12,56.0,42,15,0.5,0,9,7,5,1300,1228,400,4,303,52,42,0,0,1.1,7.0,8.62,1.0,680,176
2022/03/06 01:32,2,42,26,55,10,25,13,0.17,12,56.0,38,15,0.5,0,10,8,6,1300,1210,402,1,290,52,42,0,1,1.1,7.0,8.38,1.0,680,176
2022/03/06 01:34,2,42,34,56,9,22,17,0.14,10,56.0,39,15,0.5,0,11,8,6,1283,1201,404,1,290,52,42,0,0,1.1,7.0,8.12,1.0,680,176
2022/03/06 01:36,1,33,44,49,9,23,12,0.1,10,55.0,42,7,0.5,0,10,8,8,1213,1032,377,30,337,50,44,0,0,1.1,6.6,8.11,0.3,668,105
2022/03/06 01:38,1,37,49,49,8,20,12,0.1,8,55.0,39,7,0.5,0,10,9,8,1204,1032,379,29,332,50,44,0,0,1.1,6.7,7.84,0.3,668,105
2022/03/06 01:40,1,37,52,35,7,19,9,0.07,8,55.0,36,7,0.5,0,10,9,9,1209,1031,383,25,325,50,44,0,0,1.1,6.7,7.73,0.3,668,105
2022/03/06 01:42,1,37,50,31,4,16,7,0.07,8,54.0,30,5,0.5,0,9,9,6,1234,1024,383,21,312,50,44,0,0,1.1,6.5,7.71,0.3,668,105
2022/03/06 01:44,1,29,52,19,4,7,6,0.04,5,52.0,30,5,0.5,0,9,9,8,1234,1024,384,19,308,51,44,0,0,1.1,6.6,7.61,0.3,668,105
2022/03/06 01:46,1,29,44,17,4,6,6,0,5,52.0,36,3,0.29,0,9,9,6,1218,1020,383,17,302,52,44,0,0,1.1,6.8,7.32,0.9,696,174
2022/03/06 01:48,1,29,46,19,3,7,7,0,5,53.0,30,3,0.28,0,9,9,5,1199,1019,387,15,298,52,44,0,0,1.1,6.8,6.98,0.9,696,174
2022/03/06 01:50,1,22,27,19,3,7,7,0,4,53.0,30,3,0.28,0,10,8,5,1235,998,379,11,294,52,42,0,0,1.1,6.7,7.47,0.9,696,174
2022/03/06 01:52,1,12,14,18,4,8,4,0,5,53.0,34,4,0.28,0,6,6,5,1232,997,377,10,294,52,42,0,0,1.1,6.8,7.39,0.9,696,174
2022/03/06 01:54,1,12,14,13,3,5,2,0,6,52.5,34,4,0.28,0,6,6,3,1235,998,377,10,293,53,42,0,0,1.1,6.8,7.47,0.9,696,174
2022/03/06 01:56,1,12,10,13,3,5,1,0,6,53.0,32,4,0.28,0,6,6,3,1220,988,377,7,299,51,42,0,0,1.1,6.8,7.32,0.9,696,174
2022/03/06 01:58,1,2,5,8,2,5,1,0.04,6,53.0,36,4,0.28,0,4,4,2,1016,791,310,5,303,40,50,0,0,1.1,5.0,7.16,0.1,717,115
2022/03/06 02:00,1,2,5,8,2,5,1,0.04,6,53.0,34,2,0.28,0,4,4,2,1015,785,312,6,311,41,50,0,0,1.1,5.0,7.05,0.1,296,68
